Tracking 30744 objects as of 24-Jun-2025
HD Live streaming from Space Station
objects crossing your sky now

EXPLORER 30

Track EXPLORER 30 now!
10-day predictions
EXPLORER 30 is classified as:


NORAD ID: 1738
Int'l Code: 1965-093A
Perigee: 661.7 km
Apogee: 859.1 km
Inclination: 59.7 °
Period: 99.9 minutes
Semi major axis: 7131 km
RCS: 0.3725 m2 (medium)
Launch date: November 19, 1965
Source: United States (US)
Launch site: WALLOPS ISLAND (WLPIS)
Your satellite tracking list
Your tracking list is empty




NASA's NSSDC Master Catalog

Two Line Element Set (TLE):
1 01738U 65093A   25174.87800992  .00000067  00000-0  61947-4 0  9998
2 01738  59.7079  23.6915 0138337  68.7187 292.8557 14.41586702104726
Source of the keplerian elements: AFSPC